Back to catalog

THORAD AGENA D DEB

AlivePO
NORAD 4855·DEBRIS·🇺🇸 United States

Launched Apr 8, 1970 from Vandenberg Space Force Base

Loading…

Next Passes

TLE

Source: Space-Track
1 04855U 70025EK  26229.44971309  .00000367  00000-0  43559-3 0  9999
2 04855  99.9539 185.2662 0013949 264.3534 218.3434 13.74877090805397

Track THORAD AGENA D DEB in real time with AllMySat

Download on the App Store